COSMOS 2535 DEB, 44640

Orbit data source: Space-Track

COSMOS 2535 DEB, 44640 is space debris in SSO originally from a launch on Wed, 10 Jul 2019 UTC launched from the Plesetsk Missile And Space Complex (PKMTR). Debris objects in space refer to the collection of defunct objects orbiting the Earth. Examples of debris include non-operational satellites, rocket bodies, and fragments generated from explosions, collisions, or faulty payload assembly.

Loading next visibility...
Identifier
44640, 2019-039L
Orbit
SSO
Country
Flag of CISCIS
Related business
Manufacturer
Unknown
Mission
Spacecraft
Bus & Motor
Unknown
Mass
Unknown
Launch date (UTC)
2019-07-10 (7 years ago)
Launch vehicle
Unknown
Launch site
Plesetsk Missile And Space Complex (PKMTR)
Object type
Payload
Rocket body
Debris
Shape & HBR
Unknown shape, 0.1 m
Radar Cross Section
Small (<0.1 m²)

Expand to show TLE details & history
Last TLE update: 2 days ago

TLE from 2 days ago
0 COSMOS 2535 DEB
1 44640U 19039L   26171.21769314  .00001131  00000-0  15454-3 0  9998
2 44640  97.7630 155.3900 0060382  64.5401 296.2042 14.79227316360932
Epoch: 2026-06-20T05:13Z
TLE epoch observation values (Epoch: 2026-06-20T05:13:28.687Z)
Latitude
0.00003°
Longitude
168.58499°
Altitude
616.301 km
Speed
7.561 km/s
True Right ascension
10h 21m 33s
True Declination
0° 00' 00"
Sunlit
Object was in daylight at epoch
Visualization orbit readout
Latitude
Unknown
Longitude
Unknown
Altitude
Unknown
Speed
Unknown
Apparent Right ascension
Unknown
Apparent Declination
Unknown
Sunlit
N/A
Visualization observer readout
Local Sidereal Time
21:36:39
Azimuth
Unknown
Elevation
Unknown
Doppler factor
Unknown
Orbital elements
Apogee altitude
671.109 km
Perigee altitude
586.491 km
Semi-major axis
7,006.937 km
Eccentricity
0.00604
Inclination
97.763°
RAAN
155.39°
Arg. of periapsis
64.5401°
True anomaly
295.58132°
Mean anomaly
296.2042°
Eccentric anomaly
295.89297°
Mean motion
3.70042 °/min
Orbital period
97.29 mins
BSTAR
0.00015454
Loading maneuver chart data...
Computing Atmospheric mass density...

Documentation

Showing up to 5 results
|